• MPC Preparation (Info)

  • MPEC 2014-U76 : 2014 UZ56

    The following Minor Planet Electronic Circular may be linked-to from your own Web pages, but must not otherwise be redistributed electronically.

    A form allowing access to any MPEC is at the bottom of this page.


    Read MPEC 2014-U75 Read MPEC 2014-U77


    M.P.E.C. 2014-U76                                Issued 2014 Oct. 26, 15:34 UT
    
         The Minor Planet Electronic Circulars contain information on unusual
             minor planets and routine data on comets.  They are published
       on behalf of Commission 20 of the International Astronomical Union by the
              Minor Planet Center, Smithsonian Astrophysical Observatory,
                              Cambridge, MA 02138, U.S.A.
    
                 Prepared using the Tamkin Foundation Computer Network
    
                                  MPC@CFA.HARVARD.EDU
                URL https://www.minorplanetcenter.net/    ISSN 1523-6714
    
                                       2014 UZ56
    
    Observations:
         K14U56Z  C2014 10 24.32144 01 42 44.34 +06 18 13.1          21.8 VqEU076G96
         K14U56Z  C2014 10 24.32809 01 42 45.28 +06 18 23.9          21.5 VqEU076G96
         K14U56Z  C2014 10 24.33418 01 42 46.07 +06 18 34.1          21.4 VqEU076G96
         K14U56Z  C2014 10 24.34027 01 42 46.94 +06 18 44.0          21.4 VqEU076G96
         K14U56Z* C2014 10 24.37712 01 42 52.17 +06 19 45.8          22.1 VqEU076G96
         K14U56Z  C2014 10 24.38073 01 42 52.68 +06 19 52.1          20.9 VqEU076G96
         K14U56Z  C2014 10 24.38434 01 42 53.19 +06 19 57.9          21.4 VqEU076G96
         K14U56Z  C2014 10 24.38794 01 42 53.73 +06 20 03.7          20.9 VqEU076G96
         K14U56Z KC2014 10 25.15893 01 45 09.68 +06 42 20.0          22.4 RoEU076291
         K14U56Z KC2014 10 25.16135 01 45 10.05 +06 42 24.4                oEU076291
         K14U56Z KC2014 10 25.16380 01 45 10.42 +06 42 28.7          22.5 RoEU076291
         K14U56Z  C2014 10 26.14243001 48 05.77 +07 12 20.1          21.1 RtEU076H01
         K14U56Z  C2014 10 26.14739201 48 06.59 +07 12 29.6          21.2 RtEU076H01
         K14U56Z  C2014 10 26.15578001 48 07.99 +07 12 45.7          21.9 RtEU076H01
         K14U56Z KC2014 10 26.16366 01 48 09.60 +07 13 02.8          21.6 RoEU076291
         K14U56Z KC2014 10 26.16642 01 48 10.04 +07 13 08.3          21.6 RoEU076291
         K14U56Z  C2014 10 26.16687701 48 09.81 +07 13 07.1          21.3 RtEU076H01
         K14U56Z KC2014 10 26.16919 01 48 10.53 +07 13 14.0          22.1 RoEU076291
    
    Observer details:
    291 LPL/Spacewatch II.  Observer A. F. Tubbiolo.  1.8-m f/2.7 reflector + CCD.
    G96 Mt. Lemmon Survey.  Observer E. J. Christensen.  Measurers
        E. J. Christensen, A. R. Gibbs, A. D. Grauer, R. E. Hill, J. A. Johnson,
        R. A. Kowalski, S. M. Larson, F. C. Shelly.  1.5-m reflector + CCD.
    H01 Magdalena Ridge Observatory, Socorro.  Observers W. H. Ryan, E. V. Ryan.
        Measurer W. H. Ryan.  2.4-m f/8.9 reflector + CCD.
    
    Orbital elements:
    2014 UZ56                                                Earth MOID = 0.0661 AU
    Epoch 2014 Dec. 9.0 TT = JDT 2457000.5                  MPC
    M   4.43576              (2000.0)            P               Q
    n   0.33437074     Peri.   21.32694     +0.42591691     -0.90446726
    a   2.0558143      Node    43.47328     +0.82516962     +0.37784925
    e   0.4882739      Incl.    1.92435     +0.37106587     +0.19791142
    P   2.95           H   25.6           G   0.15           U   7
    Residuals in seconds of arc
    141024 G96  0.4+  0.3+    141024 G96  0.3-  0.0     141026 H01  0.0   0.1-
    141024 G96  0.6+  0.1-    141024 G96  0.0   0.2-    141026 H01  0.0   0.2-
    141024 G96  0.3-  0.1-    141025 291  0.1+  0.1+    141026 291  0.1+  0.2-
    141024 G96  0.1-  0.4-    141025 291  0.0   0.2+    141026 291  0.2-  0.0
    141024 G96  0.0   0.1-    141025 291  0.2-  0.0     141026 H01  0.2-  0.2-
    141024 G96  0.1-  0.2+    141026 H01  0.1+  0.1-    141026 291  0.3+  0.3+
    
    Ephemeris:
    2014 UZ56                a,e,i = 2.06, 0.49, 2                   q = 1.0520
    Date    TT    R. A. (2000) Decl.     Delta      r     Elong.  Phase     V
    2014 09 26    01 02 14.1 +00 20 04   0.2591  1.2565   166.8    10.5    23.8
    ...
    2014 10 11    01 17 21.5 +02 09 52   0.1779  1.1756   174.3     4.8    22.6
    ...
    2014 10 19    01 30 17.7 +04 12 30   0.1430  1.1386   174.3     4.9    22.1
    ...
    2014 10 25    01 44 39.0 +06 38 11   0.1205  1.1145   173.9     5.4    21.7
    2014 10 26    01 47 36.3 +07 08 27   0.1170  1.1108   174.0     5.4    21.6
    2014 10 27    01 50 45.2 +07 40 41   0.1137  1.1071   174.1     5.3    21.5
    ...
    2014 11 02    02 14 38.1 +11 40 54   0.09553 1.0877   175.7     3.9    21.0
    ...
    2014 11 10    03 04 49.8 +19 17 39   0.07761 1.0679   177.4     2.4    20.5
    ...
    2014 11 25    05 42 18.8 +33 23 09   0.07142 1.0520   154.3    24.0    21.1
    
    A. U. Tomatic                (C) Copyright 2014 MPC           M.P.E.C. 2014-U76
    

    Read MPEC 2014-U75 Read MPEC 2014-U77


    MPEC number:

    Enter an MPEC number in one of the following forms:

    • 1997-B01 (the full form)
    • J97B01 (the packed version of the full form)
    • B01 (the abbreviated form)